Weather reports worldwide

Advertisment
Aboyne, United Kingdom (3080): temperature & dewpoint: 22.03.2020 20:00:00 - 28.03.2020 20:00:00 (GMT)Aboyne, United Kingdom (3080): temperature -20cm & temperature -100cm: 22.03.2020 20:00:00 - 28.03.2020 20:00:00 (GMT)Aboyne, United Kingdom (3080): wind speed & gusts: 22.03.2020 20:00:00 - 28.03.2020 20:00:00 (GMT)Aboyne, United Kingdom (3080): wind direction: 22.03.2020 20:00:00 - 28.03.2020 20:00:00 (GMT)Aboyne, United Kingdom (3080): reduced air pressure: 22.03.2020 20:00:00 - 28.03.2020 20:00:00 (GMT)Aboyne, United Kingdom (3080): visibility: 22.03.2020 20:00:00 - 28.03.2020 20:00:00 (GMT)Aboyne, United Kingdom (3080): precipitation: 22.03.2020 20:00:00 - 28.03.2020 20:00:00 (GMT)
Date & Time tt [°C] td [°C] tt -20cm [°C] tt -100cm [°C] ff [km/h] ff [kn] fx [km/h] fx [kn] dd ppp [hPa] vv [km] rr [mm]
28.03.2020 20:00:00 2,3 -5,0 - - 13 7 - - N 1045,4 24 0,0
28.03.2020 19:00:00 2,4 -3,8 - - 13 7 - - N 1044,7 26 0,0
28.03.2020 18:00:00 2,8 -3,8 - - 11 6 - - NNE 1043,9 24 0,0
28.03.2020 17:00:00 2,7 -1,2 - - 18 10 - - NNE 1043,1 14 0,2
28.03.2020 16:00:00 3,3 -1,0 - - 9 5 - - N 1042,7 40 0,0
28.03.2020 15:00:00 3,4 -0,1 - - 11 6 48 26 NE 1042,2 28 0,0
28.03.2020 14:00:00 6,0 -1,5 - - 16 9 - - N 1041,5 35 0,0
28.03.2020 13:00:00 5,0 -1,7 - - 16 9 - - NNE 1041,4 40 0,0
28.03.2020 12:00:00 3,6 -0,4 - - 16 9 - - N 1041,2 28 0,6
28.03.2020 11:00:00 4,2 -0,1 - - 15 8 - - NNW 1040,2 29 0,2
28.03.2020 10:00:00 4,9 0,0 - - 18 10 - - NNW 1039,4 30 0,0
28.03.2020 09:00:00 4,2 1,1 4,9 5,0 21 11 - - NNW 1039,0 25 0,2
28.03.2020 08:00:00 4,6 1,1 - - 15 8 - - NW 1038,1 30 0,0
28.03.2020 07:00:00 3,9 0,9 - - 9 5 - - NW 1037,6 20 0,0
28.03.2020 06:00:00 3,1 1,1 - - 9 5 - - WNW 1037,1 17 0,0
28.03.2020 05:00:00 2,2 0,3 - - 8 4 - - WNW 1036,9 25 0,0
28.03.2020 04:00:00 4,1 2,0 - - 9 5 - - W 1036,9 29 0,0
28.03.2020 03:00:00 3,7 2,4 - - 13 7 - - WNW 1036,5 26 0,0
28.03.2020 02:00:00 0,5 0,0 - - 5 3 - - WNW 1036,2 45 0,0
28.03.2020 01:00:00 -0,1 -0,5 - - 4 2 - - NW 1036,1 40 0,0
28.03.2020 00:00:00 -0,7 -1,5 - - 4 2 - - W 1035,9 35 0,0
27.03.2020 23:00:00 0,9 0,1 - - 4 2 - - WSW 1035,5 35 0,0
27.03.2020 22:00:00 1,6 1,1 - - 5 3 - - WSW 1035,3 40 0,0
27.03.2020 21:00:00 -0,7 -1,5 - - 4 2 - - WNW 1035,2 40 0,0
27.03.2020 20:00:00 0,2 -1,3 - - 4 2 - - W 1034,6 45 0,0
27.03.2020 19:00:00 2,7 -0,2 - - 4 2 - - E 1033,8 50 0,0
27.03.2020 18:00:00 7,0 1,0 - - 4 2 - - E 1032,8 50 0,0
27.03.2020 17:00:00 7,9 2,2 - - 5 3 - - NE 1032,3 50 0,0
27.03.2020 16:00:00 7,7 3,4 - - 8 4 - - NNE 1032,3 50 0,0
27.03.2020 15:00:00 7,9 4,4 - - 8 4 - - SE 1032,2 45 0,0
27.03.2020 14:00:00 7,3 4,8 - - 4 2 - - SSW 1032,2 45 0,2
27.03.2020 13:00:00 6,6 5,0 - - 9 5 - - ESE 1032,4 25 0,0
27.03.2020 12:00:00 6,8 5,4 - - 8 4 - - NNE 1032,2 11 0,0
27.03.2020 11:00:00 6,8 5,0 - - 4 2 - - E 1032,0 45 0,0
27.03.2020 10:00:00 5,8 5,1 - - 5 3 - - N 1031,6 6 0,2
27.03.2020 09:00:00 5,5 5,0 4,9 4,9 4 2 - - NW 1031,1 9 0,0
27.03.2020 08:00:00 5,1 4,8 - - 2 1 - - W 1030,4 3,1 0,0
27.03.2020 07:00:00 4,8 4,5 - - 2 1 - - W 1030,0 2,3 0,2
27.03.2020 06:00:00 4,7 4,4 - - 4 2 - - W 1029,7 2,2 0,2
27.03.2020 05:00:00 4,8 4,2 - - 0 0 - - N 1029,3 2,5 0,0
27.03.2020 04:00:00 4,8 4,3 - - 4 2 - - W 1029,2 12 0,2
27.03.2020 03:00:00 4,7 4,2 - - 2 1 - - WSW 1029,0 10 0,0
27.03.2020 02:00:00 4,7 4,1 - - 2 1 - - SW 1028,8 8 0,0
27.03.2020 01:00:00 4,8 4,0 - - 2 1 - - ESE 1029,1 6 0,0
27.03.2020 00:00:00 4,8 3,9 - - 2 1 - - ESE 1029,1 40 0,0
26.03.2020 23:00:00 4,7 3,6 - - 2 1 - - ESE 1029,0 35 0,0
26.03.2020 22:00:00 4,9 3,6 - - 2 1 - - ESE 1029,1 45 0,0
26.03.2020 21:00:00 5,2 3,0 - - 2 1 - - ESE 1029,0 12 0,0
26.03.2020 20:00:00 5,6 2,8 - - 5 3 - - SSE 1029,0 40 0,0
26.03.2020 19:00:00 6,0 2,2 - - 4 2 - - SSE 1028,8 40 0,0
26.03.2020 18:00:00 6,4 1,8 - - 13 7 - - ESE 1028,2 40 0,0
26.03.2020 17:00:00 7,3 1,1 - - 15 8 - - E 1028,0 45 0,0
26.03.2020 16:00:00 8,1 2,0 - - 11 6 - - E 1027,9 45 0,0
26.03.2020 15:00:00 8,7 2,9 - - 9 5 - - E 1027,7 45 0,0
26.03.2020 14:00:00 9,0 4,1 - - 11 6 - - ESE 1027,7 50 0,0
26.03.2020 13:00:00 8,3 4,2 - - 5 3 - - E 1028,2 40 0,0
26.03.2020 12:00:00 7,9 4,0 - - 8 4 - - ESE 1028,4 35 0,0
26.03.2020 11:00:00 7,4 3,7 - - 4 2 - - E 1028,4 45 0,0
26.03.2020 10:00:00 6,8 4,0 - - 8 4 - - E 1028,4 25 0,0
26.03.2020 09:00:00 5,8 5,0 4,7 4,7 5 3 - - W 1028,4 4,6 0,0
26.03.2020 08:00:00 5,2 4,6 - - 5 3 - - W 1028,1 50 0,0
26.03.2020 07:00:00 5,0 4,7 - - 5 3 - - WSW 1027,6 10 0,0
26.03.2020 06:00:00 4,6 4,2 - - 4 2 - - NNW 1027,3 9 0,0
26.03.2020 05:00:00 4,6 4,1 - - 0 0 - - N 1026,7 22 0,2
26.03.2020 04:00:00 5,0 4,4 - - 0 0 - - N 1026,1 35 0,0
26.03.2020 03:00:00 5,2 4,7 - - 5 3 - - SW 1025,8 50 0,0
26.03.2020 02:00:00 5,2 4,6 - - 0 0 - - N 1025,9 22 0,0
26.03.2020 01:00:00 5,4 4,8 - - 4 2 - - NW 1025,6 45 0,0
26.03.2020 00:00:00 5,8 5,4 - - 5 3 - - WSW 1025,2 19 0,0
25.03.2020 23:00:00 6,0 5,5 - - 4 2 - - W 1025,1 3,5 0,4
25.03.2020 22:00:00 6,2 5,4 - - 4 2 - - NE 1024,7 3,1 0,8
25.03.2020 21:00:00 6,8 5,7 - - 9 5 - - NNE 1024,1 4,4 0,2
25.03.2020 20:00:00 8,4 6,4 - - 8 4 - - E 1023,1 30 0,0
25.03.2020 19:00:00 9,4 5,7 - - 4 2 - - NW 1021,7 50 0,0
25.03.2020 18:00:00 10,9 6,3 - - 9 5 - - WSW 1021,3 50 0,0
25.03.2020 17:00:00 12,1 6,2 - - 9 5 - - W 1020,8 50 0,0
25.03.2020 16:00:00 12,4 6,0 - - 9 5 - - WSW 1020,4 50 0,0
25.03.2020 15:00:00 12,2 6,2 - - 9 5 - - W 1020,4 50 0,0
25.03.2020 14:00:00 12,1 5,7 - - 5 3 - - N 1020,1 50 0,0
25.03.2020 13:00:00 12,8 5,9 - - 8 4 - - NW 1019,6 50 0,0
25.03.2020 12:00:00 11,8 5,7 - - 4 2 - - NW 1019,3 40 0,0
25.03.2020 11:00:00 11,0 6,0 - - 15 8 - - W 1019,1 45 0,0
25.03.2020 10:00:00 9,8 6,0 - - 24 13 - - SW 1018,9 45 0,0
25.03.2020 09:00:00 10,1 6,3 4,4 4,5 13 7 - - SW 1018,2 40 0,0
25.03.2020 08:00:00 9,6 6,0 - - 18 10 - - SW 1017,5 24 0,0
25.03.2020 07:00:00 8,9 5,7 - - 18 10 - - SW 1017,1 30 0,0
25.03.2020 06:00:00 9,0 5,5 - - 31 17 - - SSW 1015,9 25 0,0
25.03.2020 05:00:00 9,4 5,3 - - 21 11 - - SSW 1015,2 30 0,0
25.03.2020 04:00:00 9,6 5,2 - - 21 11 - - SSW 1014,6 28 0,0
25.03.2020 03:00:00 9,6 5,2 - - 16 9 - - SSW 1014,6 23 0,0
25.03.2020 02:00:00 9,9 5,0 - - 8 4 - - W 1014,6 25 0,0
25.03.2020 01:00:00 9,8 5,0 - - 15 8 - - WSW 1014,1 22 0,0
25.03.2020 00:00:00 10,1 5,0 - - 18 10 - - SW 1013,7 27 0,0
24.03.2020 23:00:00 10,0 5,0 - - 15 8 - - W 1013,6 21 0,0
24.03.2020 22:00:00 10,6 5,0 - - 11 6 - - SSW 1013,3 23 0,0
24.03.2020 21:00:00 10,4 5,1 - - 8 4 - - SW 1013,3 23 0,0
24.03.2020 20:00:00 9,9 5,2 - - 16 9 - - S 1012,9 27 0,0
24.03.2020 19:00:00 10,6 4,5 - - 22 12 55 30 SSW 1012,8 25 0,0
24.03.2020 18:00:00 10,8 4,3 - - 22 12 - - W 1012,7 24 0,0
24.03.2020 17:00:00 11,5 4,5 - - 18 10 52 28 WSW 1012,6 18 0,0
24.03.2020 16:00:00 12,7 3,5 - - 22 12 57 31 WSW 1012,4 30 0,0
24.03.2020 15:00:00 13,4 3,0 - - 28 15 61 33 SW 1011,9 40 0,0
24.03.2020 14:00:00 14,3 2,8 - - 24 13 61 33 SW 1012,0 30 0,0
24.03.2020 13:00:00 14,0 2,3 - - 15 8 54 29 SW 1012,2 18 0,0
24.03.2020 12:00:00 11,6 1,0 - - 37 20 59 32 SW 1012,3 28 0,0
24.03.2020 11:00:00 10,6 2,0 - - 22 12 - - WSW 1012,6 30 0,0
24.03.2020 10:00:00 9,9 2,5 - - 28 15 61 33 WSW 1012,5 29 0,0
24.03.2020 09:00:00 8,8 2,8 3,7 4,4 21 11 - - WSW 1013,2 21 0,0
24.03.2020 08:00:00 8,5 3,0 - - 18 10 48 26 SSW 1014,0 22 0,0
24.03.2020 07:00:00 8,7 3,2 - - 24 13 46 25 SSW 1014,0 24 0,0
24.03.2020 06:00:00 8,8 3,5 - - 16 9 54 29 SSW 1014,3 21 0,0
24.03.2020 05:00:00 8,7 3,3 - - 13 7 54 29 S 1014,8 21 0,0
24.03.2020 04:00:00 9,0 3,0 - - 24 13 46 25 SW 1014,8 25 0,0
24.03.2020 03:00:00 9,0 2,6 - - 24 13 50 27 SSW 1015,0 35 0,0
24.03.2020 02:00:00 8,1 1,5 - - 15 8 - - SW 1015,9 23 0,0
24.03.2020 01:00:00 8,1 1,2 - - 21 11 - - SSW 1016,3 24 0,0
24.03.2020 00:00:00 8,5 1,1 - - 22 12 57 31 SW 1016,3 30 0,0
23.03.2020 23:00:00 8,8 1,0 - - 26 14 55 30 SW 1017,1 30 0,0
23.03.2020 22:00:00 8,7 0,7 - - 34 18 54 29 SSW 1017,0 24 0,0
23.03.2020 21:00:00 8,5 0,5 - - 22 12 46 25 SSW 1016,8 35 0,0
23.03.2020 20:00:00 8,9 0,0 - - 26 14 50 27 SSW 1017,3 35 0,0
23.03.2020 19:00:00 9,0 0,9 - - 26 14 50 27 SW 1017,3 28 0,0
23.03.2020 18:00:00 9,4 1,2 - - 18 10 - - S 1017,5 29 0,0
23.03.2020 17:00:00 9,6 1,1 - - 18 10 - - S 1017,3 25 0,0
23.03.2020 16:00:00 9,5 1,7 - - 22 12 - - S 1017,7 23 0,0
23.03.2020 15:00:00 8,9 1,5 - - 22 12 - - SSE 1018,3 30 0,0
23.03.2020 14:00:00 8,9 0,6 - - 22 12 - - SSE 1019,1 27 0,0
23.03.2020 13:00:00 8,5 0,1 - - 22 12 - - SSW 1019,4 28 0,0
23.03.2020 12:00:00 8,1 -0,4 - - 22 12 - - SW 1020,6 22 0,0
23.03.2020 11:00:00 7,1 -0,5 - - 13 7 - - SSW 1020,7 28 0,0
23.03.2020 10:00:00 5,9 -0,9 - - 15 8 - - SSW 1021,1 28 0,0
23.03.2020 09:00:00 4,2 -1,8 3,7 4,4 9 5 - - E 1021,5 35 0,0
23.03.2020 08:00:00 3,8 -2,6 - - 5 3 - - ESE 1021,7 25 0,0
23.03.2020 07:00:00 4,0 -3,1 - - 8 4 - - SSE 1021,7 30 0,0
23.03.2020 06:00:00 4,4 -2,6 - - 11 6 - - S 1021,7 30 0,0
23.03.2020 05:00:00 4,8 -2,5 - - 8 4 - - SSW 1021,9 30 0,0
23.03.2020 04:00:00 4,3 -1,3 - - 15 8 - - S 1022,7 21 0,0
23.03.2020 03:00:00 3,8 -0,8 - - 5 3 - - ESE 1022,8 29 0,0
23.03.2020 02:00:00 2,4 -1,2 - - 5 3 - - ENE 1023,2 22 0,0
23.03.2020 01:00:00 2,4 -0,1 - - 9 5 - - ESE 1023,8 17 0,0
23.03.2020 00:00:00 2,2 -0,8 - - 15 8 - - ESE 1024,1 20 0,0
22.03.2020 23:00:00 3,0 0,2 - - 15 8 - - ESE 1024,3 19 0,0
22.03.2020 22:00:00 3,4 0,1 - - 11 6 - - ESE 1024,8 17 0,0
22.03.2020 21:00:00 4,4 1,4 - - 18 10 - - S 1025,5 17 0,0
22.03.2020 20:00:00 4,0 1,0 - - 11 6 - - S 1026,0 15 0,0

tt = temperature
td = dewpoint
tt -20cm = temperature -20cm
tt -100cm = temperature -100cm
ff = wind speed
fx = gusts
dd = wind direction
ppp = reduced air pressure
vv = visibility
rr = precipitation

Next stations